UmKA 1 (RS40S)
1 57172U 23091G   26050.59353542  .00006246  00000-0  29843-3 0  9993
2 57172  97.5217 109.7732 0013656 164.0841 196.0825 15.19303719146145
CubeBel-2 (EU11S)
1 57175U 23091K   26050.61326387  .00011482  00000-0  44630-3 0  9995
2 57175  97.5210 112.9486 0011036 163.6762 196.4834 15.26158481146359
RS-38S
1 57189U 23091Z   26050.60971297  .00016057  00000-0  52080-3 0  9996
2 57189  97.5236 118.0086 0008951 127.2363 232.9697 15.32022154146661
SONATE-2
1 59112U 24043Q   26050.39581720  .00032028  00000-0  57410-3 0  9994
2 59112  97.5380 194.4698 0007955 275.4709  84.5634 15.49850000109599
MO-122
1 60209U 24125G   26050.52611180  .00038466  00000-0  64003-3 0  9991
2 60209  97.2467 266.1996 0011604 296.7871  63.2194 15.51873715 91250
GRBBeta
1 60237U 24128C   26050.57687877  .00003915  00000-0  27697-3 0  9995
2 60237  61.9887 268.5940 0053088 110.5458 250.1342 15.05554615 88551
Curium One
1 60242U 24128H   26050.28487960  .00007615  00000-0  45932-3 0  9993
2 60242  61.9775 262.7400 0053160 107.4074 253.2843 15.10379817 88634
ROBUSTA-3A
1 60243U 24128J   26049.98853821  .00006703  00000-0  41375-3 0  9996
2 60243  61.9850 265.6364 0053419 104.8993 255.8025 15.09681714 88560
CatSat
1 60246U 24125J   26050.58508130  .00040353  00000-0  78939-3 0  9999
2 60246  97.2228 262.5061 0027939 256.6551 103.1584 15.46885507 89145
HYPERVIEW-1G (RS66S)
1 61772U 24199AP  26050.62869986  .00053368  00000-0  77878-3 0  9990
2 61772  97.3119 286.2615 0008986   0.8836 359.2433 15.55466156116293
AO-123
1 61781U 24199AY  26050.61043989  .00008947  00000-0  27637-3 0  9997
2 61781  97.3179 280.3657 0014789  16.9728 343.2007 15.33658358115894
JINJUSat 1B
1 63210U 25052A   26050.15243778  .00015008  00000-0  52783-3 0  9998
2 63210  97.4148 306.9984 0004907 123.0694 237.1019 15.29435193 52036
NUSHSAT 1
1 63211U 25052B   26049.95937749  .00017091  00000-0  57268-3 0  9990
2 63211  97.4129 307.0441 0004690 125.5929 234.5750 15.30983338 52026
TEVEL2-4
1 63213U 25052D   26049.66812195  .00017899  00000-0  61674-3 0  9999
2 63213  97.4052 306.1529 0003492 132.9276 227.2258 15.30070899 51969
TEVEL2-5
1 63214U 25052E   26050.26627585  .00017260  00000-0  59654-3 0  9992
2 63214  97.4048 306.7256 0003482 131.1378 229.0163 15.29979646 52053
TEVEL2-6
1 63215U 25052F   26050.27559764  .00017645  00000-0  61052-3 0  9999
2 63215  97.4048 306.7213 0003596 133.2041 226.9500 15.29938581 52057
TEVEL2-1
1 63217U 25052H   26050.59604651  .00017595  00000-0  61608-3 0  9993
2 63217  97.4025 306.7901 0003181 142.8975 217.2485 15.29552852 52092
TEVEL2-3
1 63218U 25052J   26050.26692714  .00017010  00000-0  59536-3 0  9994
2 63218  97.4026 306.4724 0003179 144.7098 215.4354 15.29572793 52044
TEVEL2-2
1 63219U 25052K   26050.26962267  .00016693  00000-0  58489-3 0  9990
2 63219  97.4026 306.4656 0003200 145.2407 214.9043 15.29541832 52043
TEVEL2-9
1 63237U 25052AD  26049.64830477  .00016131  00000-0  59472-3 0  9997
2 63237  97.4093 305.4491 0005774 185.1810 174.9371 15.27866278 51907
TEVEL2-7
1 63238U 25052AE  26050.12852511  .00014312  00000-0  53112-3 0  9990
2 63238  97.4093 305.8840 0005949 184.1236 175.9955 15.27676996 51977
TEVEL2-8
1 63239U 25052AF  26050.26627681  .00015326  00000-0  56882-3 0  9997
2 63239  97.4088 306.0030 0005916 184.2628 175.8562 15.27658740 51998
HYDRA-W
1 63490U 25052BL  26050.15917857  .00123382  00000-0  17291-2 0  9993
2 63490  97.3980 310.5719 0006708 144.7276 215.4424 15.56323639 52303
HADES-ICM (SO-125)
1 63492U 25052BN  26050.15431739  .00101131  00000-0  16713-2 0  9991
2 63492  97.3991 309.9989 0006264 154.5394 205.6168 15.51857391 52268
RSP-03
1 65732U 98067XL  26047.27951905  .10199253  12460-4  79249-3 0  9991
2 65732  51.6061 154.7117 0006246 319.9198  40.1367 16.39378610 23558
BOTAN
1 65942U 98067XP  26050.53216288  .00518361  11850-3  13854-2 0  9999
2 65942  51.6151 145.8072 0009727 351.0195   9.0636 15.93841465 20702
CEVROSAT1
1 66309U 25248S   26050.01861295  .00004966  00000-0  24586-3 0  9993
2 66309  45.4049  34.6908 0001925 101.2708 258.8394 15.19039204 16536
SPIRONE
1 66657U 25274H   26050.45453185  .00002259  00000-0  22274-3 0  9996
2 66657  97.7434 341.5192 0013606  50.3204 309.9213 14.92942294 12658
K-HERO
1 66660U 25274L   26050.22561441  .00002885  00000-0  27948-3 0  9998
2 66660  97.7445 341.3648 0015717  55.0198 305.2495 14.93409501 12625
SNUGLITE-III DURI
1 66661U 25274M   26050.35261018  .00002821  00000-0  27271-3 0  9999
2 66661  97.7439 341.5026 0016222  55.8412 304.4343 14.93506297 12645
SilverSat
1 66909U 98067XV  26050.55500368  .00136429  00000-0  12932-2 0  9999
2 66909  51.6278 157.3089 0003840 338.0283  22.0547 15.65970316 12349
SAKHACUBE-CHOLBON
1 67290U 25313AU  26050.28210431  .00010056  00000-0  43705-3 0  9996
2 67290  97.4041 126.9440 0010643  56.4792 303.7460 15.22429618  8027
QMR-KWT
1 67291U 25313AV  26050.40747610  .00013436  00000-0  57568-3 0  9992
2 67291  97.4041 127.0814 0010251  55.6007 304.6198 15.22843133  8042
IO-86
1 40931U          25360.30710720  .00000000  00000-0  12800-3 0    00
2 40931   6.0006 332.5373 0012733 338.8432   8.1437 14.79075515    01
